| time (UTC) | temp F | wind direction | speed MPH | gust MPH | rain 1hr in | rain 24hr in | rain mn in | humidity % | barometer mb |
| 20260504234539 | 83 | 360 | 14.0 | 22.0 | 0.00 | 0.00 | 0.00 | 15 | 997.8 |
| 20260504233042 | 83 | 236 | 14.0 | 21.0 | 0.00 | 0.00 | 0.00 | 20 | 997.7 |
| 20260504231541 | 83 | 360 | 11.0 | 25.0 | 0.00 | 0.00 | 0.00 | 20 | 997.7 |
| 20260504230037 | 84 | 236 | 21.0 | 27.0 | 0.00 | 0.00 | 0.00 | 19 | 997.8 |
| 20260504224535 | 84 | 241 | 13.0 | 24.0 | 0.00 | 0.00 | 0.00 | 19 | 997.9 |
| 20260504223034 | 86 | 277 | 19.0 | 28.0 | 0.00 | 0.00 | 0.00 | 17 | 998.2 |
| 20260504221533 | 86 | 240 | 14.0 | 29.0 | 0.00 | 0.00 | 0.00 | 16 | 998.4 |
| 20260504220031 | 86 | 281 | 21.0 | 29.0 | 0.00 | 0.00 | 0.00 | 15 | 998.6 |
| 20260504214530 | 86 | 248 | 19.0 | 33.0 | 0.00 | 0.00 | 0.00 | 13 | 998.8 |
| 20260504213027 | 86 | 233 | 22.0 | 31.0 | 0.00 | 0.00 | 0.00 | 16 | 999.0 |
| 20260504211524 | 86 | 360 | 18.0 | 29.0 | 0.00 | 0.00 | 0.00 | 17 | 999.2 |
| 20260504210024 | 86 | 248 | 24.0 | 31.0 | 0.00 | 0.00 | 0.00 | 17 | 999.6 |
| 20260504204520 | 85 | 360 | 17.0 | 30.0 | 0.00 | 0.00 | 0.00 | 18 | 999.9 |
| 20260504203017 | 86 | 260 | 15.0 | 29.0 | 0.00 | 0.00 | 0.00 | 17 | 1000.0 |
| 20260504201514 | 85 | 271 | 15.0 | 29.0 | 0.00 | 0.00 | 0.00 | 19 | 1000.2 |
| 20260504200023 | 85 | 261 | 17.0 | 30.0 | 0.00 | 0.00 | 0.00 | 19 | 1000.4 |
| 20260504194510 | 85 | 271 | 12.0 | 22.0 | 0.00 | 0.00 | 0.00 | 20 | 1000.7 |
| 20260504193007 | 85 | 275 | 13.0 | 24.0 | 0.00 | 0.00 | 0.00 | 19 | 1001.0 |
| 20260504191517 | 85 | 274 | 16.0 | 24.0 | 0.00 | 0.00 | 0.00 | 19 | 1001.3 |
| 20260504190011 | 85 | 236 | 15.0 | 24.0 | 0.00 | 0.00 | 0.00 | 19 | 1001.4 |
| 20260504184511 | 85 | 267 | 10.0 | 22.0 | 0.00 | 0.00 | 0.00 | 19 | 1001.7 |
| 20260504183109 | 85 | 290 | 11.0 | 19.0 | 0.00 | 0.00 | 0.00 | 20 | 1001.9 |
| 20260504181558 | 85 | 262 | 15.0 | 26.0 | 0.00 | 0.00 | 0.00 | 20 | 1002.4 |
| 20260504180056 | 84 | 261 | 13.0 | 24.0 | 0.00 | 0.00 | 0.00 | 19 | 1002.6 |
| 20260504174600 | 85 | 281 | 14.0 | 22.0 | 0.00 | 0.00 | 0.00 | 20 | 1002.7 |
| 20260504173056 | 84 | 311 | 16.0 | 27.0 | 0.00 | 0.00 | 0.00 | 21 | 1003.1 |
| 20260504171549 | 84 | 275 | 17.0 | 29.0 | 0.00 | 0.00 | 0.00 | 21 | 1003.4 |
| 20260504081517 | 59 | 235 | 22.0 | 29.0 | 0.00 | 0.00 | 0.00 | 56 | 1004.9 |
| 20260504044547 | 63 | 217 | 16.0 | 22.0 | 0.00 | 0.00 | 0.00 | 38 | 1007.4 |
| 20260504043040 | 62 | 200 | 13.0 | 17.0 | 0.00 | 0.00 | 0.00 | 38 | 1007.5 |
| 20260504041540 | 61 | 204 | 14.0 | 18.0 | 0.00 | 0.00 | 0.00 | 38 | 1007.6 |
| 20260504040051 | 62 | 192 | 11.0 | 17.0 | 0.00 | 0.00 | 0.00 | 37 | 1007.7 |
| 20260504034554 | 62 | 202 | 11.0 | 16.0 | 0.00 | 0.00 | 0.00 | 36 | 1007.7 |
| 20260504033048 | 63 | 193 | 10.0 | 14.0 | 0.00 | 0.00 | 0.00 | 35 | 1007.8 |
| 20260504031537 | 64 | 200 | 10.0 | 15.0 | 0.00 | 0.00 | 0.00 | 35 | 1007.7 |
| 20260504030044 | 65 | 199 | 10.0 | 14.0 | 0.00 | 0.00 | 0.00 | 34 | 1007.5 |
| 20260504024536 | 65 | 203 | 9.0 | 13.0 | 0.00 | 0.00 | 0.00 | 33 | 1007.5 |
| 20260504023040 | 67 | 204 | 12.0 | 18.0 | 0.00 | 0.00 | 0.00 | 32 | 1007.4 |
| 20260504021535 | 68 | 209 | 10.0 | 15.0 | 0.00 | 0.00 | 0.00 | 30 | 1007.3 |
| 20260504020038 | 69 | 221 | 12.0 | 16.0 | 0.00 | 0.00 | 0.00 | 30 | 1007.1 |
| 20260504014541 | 70 | 360 | 12.0 | 16.0 | 0.00 | 0.00 | 0.00 | 29 | 1007.1 |
| 20260504013038 | 72 | 211 | 11.0 | 19.0 | 0.00 | 0.00 | 0.00 | 25 | 1007.2 |
| 20260504011533 | 73 | 360 | 14.0 | 20.0 | 0.00 | 0.00 | 0.00 | 24 | 1007.2 |
| 20260504010034 | 74 | 248 | 15.0 | 22.0 | 0.00 | 0.00 | 0.00 | 24 | 1007.2 |
| 20260504004536 | 75 | 234 | 21.0 | 28.0 | 0.00 | 0.00 | 0.00 | 24 | 1007.2 |
| 20260504003035 | 76 | 245 | 18.0 | 29.0 | 0.00 | 0.00 | 0.00 | 21 | 1007.3 |
| 20260504001529 | 77 | 229 | 16.0 | 26.0 | 0.00 | 0.00 | 0.00 | 20 | 1007.5 |
| 20260504000029 | 77 | 209 | 17.0 | 26.0 | 0.00 | 0.00 | 0.00 | 20 | 1007.5 |